Location: Taupo
(38.6830°S, 176.0830°E)
Time: 19:23:34
(UTC+13:00)

ISS - Visible Passes

Search period start: 30 September 2023 00:00
Search period end: 10 October 2023 00:00
Orbit: 414 x 421 km, 51.6° (Epoch: 29 September)

Date Brightness Start Highest point End Pass type
(mag) Time Alt. Az. Time Alt. Az. Time Alt. Az.
30 Sep -0.9 05:27:24 10° SSW 05:28:07 10° S 05:28:51 10° S visible
01 Oct -0.8 04:40:23 12° S 04:40:23 12° S 04:41:17 10° SSE visible
01 Oct -0.8 06:17:17 10° S 06:17:53 10° S 06:18:29 10° SSE visible
03 Oct -1.0 06:17:03 10° SSW 06:19:00 14° SSE 06:20:55 10° SE visible
04 Oct -0.8 05:29:11 10° S 05:30:29 12° SSE 05:31:47 10° SE visible
05 Oct -0.6 04:41:26 10° S 04:41:53 10° S 04:42:19 10° SSE visible
05 Oct -1.5 06:16:46 10° SSW 06:19:38 24° SSE 06:22:28 10° E visible
06 Oct -1.0 05:28:40 10° SSW 05:31:04 17° SSE 05:33:28 10° ESE visible
07 Oct -0.8 04:40:32 10° SSW 04:42:23 14° SSE 04:44:13 10° SE visible
07 Oct -2.9 06:16:23 10° SW 06:19:46 53° SE 06:23:05 10° ENE visible
08 Oct -0.4 03:54:03 11° SSE 03:54:03 11° SSE 03:54:44 10° SSE visible
08 Oct -2.0 05:28:00 10° SW 05:31:09 33° SSE 05:34:16 10° E visible
09 Oct -1.4 04:40:36 15° SSW 04:42:24 22° SSE 04:45:11 10° E visible
